Flag for U.S.A. Weather past 2 weeks in Hartford, Connecticut, U.S.A.

Now
63 °F

Clear.


Feels Like: 63 °F
Forecast: 60 / 79 °F
Wind: No wind

Location: Hartford-Brainard Airport

Current Time: Jul 31, 2014 at 2:12:39 AM

Latest Report: Jul 31, 2014 at 12:53 AM


Visibility: 10 mi

Pressure: 30.04 "Hg

Humidity: 78%

Dew point: 56 °F

Location of HartfordLocation

Historic Weather in Hartford — Graph

°F

Hartford temperature yesterday

Maximum temperature yesterday: 78 °F (at 3:53 PM)
Minimum temperature yesterday: 60 °F (at 5:53 AM)
Average temperature yesterday: 70 °F

Past Weeks' High & Low Weather Summary

 TemperatureHumidityPressure
High88 °F (Jul 23, 1:53 PM)97% (Jul 18, 4:58 AM)30.27 "Hg (Jul 18, 4:58 AM)
Low58 °F (Jul 18, 4:58 AM)32% (Jul 30, 3:53 PM)29.45 "Hg (Jul 28, 2:53 PM)
Average72 °F67%29.95 "Hg
* Reported Jul 16 12:53 AM — Jul 31 12:53 AM, Hartford, Weather by CustomWeather, © 2014

Note: Actual official high and low records may vary slightly from our data, if they occured in-between our weather recording intervals... More about our weather records

Advertising

Hartford weather history for previous 24 hours

 ConditionsComfort  
Time TempWeatherWind HumidityBarometerVisibility
12:53 AM
Jul 31
63 °FClear.No wind78%30.04 "Hg10 mi
11:53 PM
Jul 30
65 °FClear.3 mph70%30.05 "Hg10 mi
10:53 PM66 °FClear.5 mph65%30.04 "Hg10 mi
9:53 PM67 °FClear.6 mph66%30.03 "Hg10 mi
8:53 PM68 °FSunny.5 mph65%30.01 "Hg10 mi
7:53 PM76 °FSunny.7 mph36%30.01 "Hg10 mi
6:53 PM77 °FSunny.7 mph33%30.00 "Hg10 mi
5:53 PM78 °FPassing clouds.10 mph32%29.98 "Hg10 mi
4:53 PM78 °FPassing clouds.7 mph35%29.98 "Hg10 mi
3:53 PM78 °FPartly sunny.6 mph32%29.98 "Hg10 mi
2:53 PM77 °FOvercast.7 mph35%29.98 "Hg10 mi
1:53 PM77 °FPartly sunny.5 mph33%29.98 "Hg10 mi
12:53 PM76 °FScattered clouds.6 mph39%29.99 "Hg10 mi
11:53 AM74 °FScattered clouds.5 mph43%30.01 "Hg10 mi
10:53 AM74 °FSunny.3 mph48%30.01 "Hg10 mi
9:53 AM71 °FSunny.No wind59%30.01 "Hg10 mi
8:53 AM68 °FSunny.No wind65%30.02 "Hg10 mi
7:53 AM65 °FPassing clouds.No wind76%30.02 "Hg10 mi
6:53 AM61 °FOvercast.No wind90%30.01 "Hg10 mi
5:53 AM60 °FClear.No wind86%29.98 "Hg10 mi
4:53 AM62 °FOvercast.No wind83%29.98 "Hg10 mi
3:53 AM62 °FOvercast.No wind83%29.96 "Hg10 mi
2:53 AM62 °FOvercast.3 mph80%29.96 "Hg10 mi
Weather by CustomWeather, © 2014

See weather overviewHow to use our weather pages